Inverness, United Kingdom

6:05 AM BST on August 26, 2016 (GMT +0100)
Inverness

Weather History for EGPE - May, 2013

Change the Weather History Date:

Sunday, May 19, 2013

  Actual Average Record
Temperature  
Mean Temperature 52 °F -  
Max Temperature 59 °F 58 °F 64 °F (1998)
Min Temperature 46 °F 45 °F 33 °F (2008)
Degree Days  
Heating Degree Days 12    
Growing Degree Days 2 (Base 50)    
Moisture  
Dew Point 50 °F    
Average Humidity 95    
Maximum Humidity 100    
Minimum Humidity 88    
Precipitation  
Precipitation 0.00 in - - ()
Sea Level Pressure  
Sea Level Pressure 29.98 in    
Wind  
Wind Speed 6 mph ()    
Max Wind Speed 10 mph    
Max Gust Speed -    
Visibility 2.9 miles    
Events Fog    
Averages and records for this station are not official NWS values.
T = Trace of Precipitation, MM = Missing Value Source: Averaged Metar Reports

Daily Weather History Graph

Daily Weather History Graph

Search for Another Location

Airport or City:

Trip Planner

Search our weather history database for the weather conditions in past years. The results will help you decide how hot, cold, wet, or windy it might be!

Date:

Astronomy

May. 19, 2013 Rise Set
Actual Time 4:46 AM BST 9:39 PM BST
Civil Twilight 3:50 AM BST 10:36 PM BST
Nautical Twilight 2:02 AM BST 12:30 AM BST
Astronomical Twilight Sun does not set Sun does not set
Moon 2:13 PM BST (5/19) 2:24 AM BST (5/19)
Length of Visible Light 18h 46m
Length of Day
16h 53m
Waxing Gibbous, 63% of the Moon is Illuminated
May 19
Waxing Gibbous
May 25
Full
May 31
Last Quarter
Jun 8
New
Jun 16
First Quarter

Hourly Weather History & Observations

Time (BST) Temp. Dew Point Humidity Pressure Visibility Wind Dir Wind Speed Gust Speed Precip Events Conditions
12:20 AM 48.2 °F 46.4 °F 93% 29.95 in 4.3 mi ENE 9.2 mph - N/A   Overcast
12:50 AM 48.2 °F 46.4 °F 93% 29.95 in 3.1 mi ENE 9.2 mph - N/A   Drizzle
1:20 AM 48.2 °F 46.4 °F 93% 29.95 in 3.1 mi ENE 9.2 mph - N/A   Light Drizzle
1:50 AM 48.2 °F 46.4 °F 93% 29.95 in - ENE 9.2 mph - N/A   Overcast
2:20 AM 48.2 °F 46.4 °F 93% 29.95 in - ENE 8.1 mph - N/A   Mostly Cloudy
2:50 AM 48.2 °F 46.4 °F 93% 29.95 in - ENE 8.1 mph - N/A   Overcast
3:20 AM 48.2 °F 46.4 °F 93% 29.95 in - ENE 6.9 mph - N/A   Overcast
3:50 AM 48.2 °F 46.4 °F 93% 29.95 in - ENE 8.1 mph - N/A   Overcast
4:20 AM 48.2 °F 46.4 °F 93% 29.95 in - ENE 8.1 mph - N/A   Overcast
4:50 AM 48.2 °F 46.4 °F 93% 29.95 in 2.8 mi ENE 8.1 mph - N/A   Overcast
5:20 AM 48.2 °F 46.4 °F 93% 29.95 in - ENE 8.1 mph - N/A   Overcast
5:50 AM 48.2 °F 46.4 °F 93% 29.95 in - ENE 6.9 mph - N/A   Mostly Cloudy
6:20 AM 48.2 °F 46.4 °F 93% 29.95 in - ENE 6.9 mph - N/A   Overcast
6:50 AM 48.2 °F 48.2 °F 100% 29.98 in 1.2 mi ENE 8.1 mph - N/A   Overcast
7:20 AM 48.2 °F 48.2 °F 100% 29.98 in 0.7 mi ENE 8.1 mph - N/A   Light Drizzle
7:50 AM 48.2 °F 48.2 °F 100% 29.98 in 0.4 mi ENE 9.2 mph - N/A Fog Light Drizzle
8:20 AM 48.2 °F 48.2 °F 100% 29.98 in 0.4 mi ENE 9.2 mph - N/A Fog Fog
8:50 AM 48.2 °F 48.2 °F 100% 29.98 in 0.4 mi ENE 10.4 mph - N/A Fog Fog
9:20 AM 48.2 °F 48.2 °F 100% 29.98 in 0.4 mi ENE 9.2 mph - N/A Fog Fog
9:50 AM 48.2 °F 48.2 °F 100% 29.98 in 0.4 mi ENE 9.2 mph - N/A Fog Fog
10:20 AM 48.2 °F 48.2 °F 100% 29.98 in 0.5 mi NE 8.1 mph - N/A Fog Fog
10:50 AM 48.2 °F 48.2 °F 100% 29.98 in 0.6 mi ENE 6.9 mph - N/A Fog Fog
11:20 AM 50.0 °F 50.0 °F 100% 30.01 in 0.9 mi ENE 6.9 mph - N/A   Overcast
11:50 AM 50.0 °F 50.0 °F 100% 30.01 in 1.9 mi ENE 5.8 mph - N/A   Mostly Cloudy
12:20 PM 50.0 °F 50.0 °F 100% 30.01 in 2.2 mi Variable 3.5 mph - N/A   Mostly Cloudy
12:50 PM 50.0 °F 50.0 °F 100% 30.01 in 2.5 mi Variable 2.3 mph - N/A   Mostly Cloudy
1:20 PM 51.8 °F 51.8 °F 100% 30.01 in 2.2 mi Variable 3.5 mph - N/A   Mostly Cloudy
1:50 PM 51.8 °F 51.8 °F 100% 30.01 in 2.8 mi Variable 2.3 mph - N/A   Mostly Cloudy
2:20 PM 53.6 °F 51.8 °F 94% 30.01 in 2.8 mi Variable 3.5 mph - N/A   Mostly Cloudy
2:50 PM 53.6 °F 51.8 °F 94% 29.98 in - WSW 4.6 mph - N/A   Mostly Cloudy
3:20 PM 55.4 °F 53.6 °F 94% 29.98 in 3.1 mi Variable 2.3 mph - N/A   Mostly Cloudy
3:50 PM 55.4 °F 53.6 °F 94% 29.98 in 3.7 mi NW 5.8 mph - N/A   Mostly Cloudy
4:20 PM 57.2 °F 53.6 °F 88% 29.98 in 5.0 mi NW 5.8 mph - N/A   Scattered Clouds
4:50 PM 59.0 °F 55.4 °F 88% 29.98 in 5.0 mi Variable 2.3 mph - N/A   Scattered Clouds
5:20 PM 57.2 °F 55.4 °F 94% 29.98 in 5.0 mi ENE 5.8 mph - N/A   Mostly Cloudy
5:50 PM 57.2 °F 53.6 °F 88% 29.98 in 5.0 mi NE 4.6 mph - N/A   Mostly Cloudy
6:20 PM 57.2 °F 55.4 °F 94% 29.98 in 5.0 mi NE 3.5 mph - N/A   Mostly Cloudy
6:50 PM 59.0 °F 55.4 °F 88% 29.98 in 5.0 mi Variable 2.3 mph - N/A   Mostly Cloudy
7:20 PM 59.0 °F 55.4 °F 88% 29.98 in 6.2 mi ENE 3.5 mph - N/A   Partly Cloudy
7:50 PM 55.4 °F 53.6 °F 94% 29.98 in 6.2 mi ENE 4.6 mph - N/A   Partly Cloudy
8:20 PM 55.4 °F 51.8 °F 88% 29.98 in 6.2 mi Calm Calm - N/A   Unknown
8:50 PM 53.6 °F 51.8 °F 94% 29.98 in 6.2 mi Calm Calm - N/A   Unknown
9:20 PM 51.8 °F 50.0 °F 94% 29.98 in 5.0 mi SE 3.5 mph - N/A   Partly Cloudy
9:50 PM 48.2 °F 48.2 °F 100% 29.98 in - Variable 2.3 mph - N/A   Mist
10:20 PM 50.0 °F 48.2 °F 94% 30.01 in - NE 3.5 mph - N/A   Mostly Cloudy
10:50 PM 48.2 °F 46.4 °F 93% 30.01 in - Calm Calm - N/A   Partly Cloudy
11:20 PM 46.4 °F 44.6 °F 93% 30.01 in 1.7 mi Variable 2.3 mph - N/A   Mist
11:50 PM 48.2 °F 46.4 °F 93% 29.98 in 0.6 mi SW 2.3 mph - N/A   Mist